DELTA 1 DEB, 10711

Orbit data source: Space-Track

DELTA 1 DEB, 10711 is space debris in SSO originally from a launch on Thu, 29 Jul 1976 UTC launched from the Air Force Western Test Range (AFWTR). Debris objects in space refer to the collection of defunct objects orbiting the Earth. Examples of debris include non-operational satellites, rocket bodies, and fragments generated from explosions, collisions, or faulty payload assembly.

Loading next visibility...
Identifier
10711, 1976-077AG
Orbit
SSO
Country
Flag of USUS
Related business
Manufacturer
Unknown
Mission
Spacecraft
Bus & Motor
Unknown
Mass
Unknown
Launch date (UTC)
1976-07-29 (49 years ago)
Launch vehicle
Unknown
Launch site
Air Force Western Test Range (AFWTR)
Object type
Payload
Rocket body
Debris
Shape & HBR
Unknown shape, 0.1 m
Radar Cross Section
Small (<0.1 m²)

Expand to show TLE details & history
Last TLE update: 9 hours ago

TLE from 9 hours ago
0 DELTA 1 DEB
1 10711U 76077AG  25291.27189963 -.00000024  00000-0  18542-3 0  9991
2 10711 102.4626 270.0260 0063548 147.3209 327.6024 12.29242082209009
Epoch: 2025-10-18T06:31Z
TLE epoch observation values (Epoch: 2025-10-18T06:31:32.128Z)
Latitude
62.74919°
Longitude
-9.58547°
Altitude
1,520.635 km
Speed
7.13 km/s
True Right ascension
07h 41m 12s
True Declination
62° 37' 21"
Sunlit
Object was in daylight at epoch
Visualization orbit readout
Latitude
Unknown
Longitude
Unknown
Altitude
Unknown
Speed
Unknown
Apparent Right ascension
Unknown
Apparent Declination
Unknown
Sunlit
N/A
Visualization observer readout
Local Sidereal Time
10:35:35
Azimuth
Unknown
Elevation
Unknown
Doppler factor
Unknown
Orbital elements
Apogee altitude
1,600.539 km
Perigee altitude
1,499.773 km
Semi-major axis
7,928.293 km
Eccentricity
0.00635
Inclination
102.4626°
RAAN
270.026°
Arg. of periapsis
147.3209°
True anomaly
327.2096°
Mean anomaly
327.6024°
Eccentric anomaly
327.40627°
Mean motion
3.07449 °/min
Orbital period
117.09 mins
BSTAR
0.00018542
Loading maneuver chart data...
Computing Atmospheric mass density...
Loading historical data...
Loading historical data...
Loading historical data...
Loading historical data...
Loading historical data...
Loading historical data...
Loading historical data...

Documentation

Showing up to 5 results
|